Regional Weather Roundup
Issued by NWS

Home | Current Version | Previous Version | Text Only | Print | Product List | Glossary On
Versions: 1 2 3 4 5 6 7 8 9 10 11 12 13 14 15 16 17 18 19 20 21 22 23 24 25 26 27 28 29 30 31 32 33 34 35 36 37 38 39 40 41 42 43 44 45 46 47 48 49 50
000
ASUS43 KMPX 041210
RWRMN
WEATHER ROUNDUP FOR MINNESOTA
NATIONAL WEATHER SERVICE TWIN CITIES/CHANHASSEN MN
700 AM CDT MON MAY 04 2015


NOTE: "FAIR" INDICATES FEW OR NO CLOUDS BELOW 12,000 FEET WITH NO
SIGNIFICANT WEATHER AND/OR OBSTRUCTIONS TO VISIBILITY. N/A MEANS
CURRENT SKY AND/OR WEATHER CONDITIONS ARE NOT AVAILABLE.

MNZ060>063-068>070-041300-
   Twin Cities Metro

CITY           SKY/WX    TMP DP  RH WIND       PRES   REMARKS
TWIN CITIES    PTCLDY    52  36  54 N6        30.12R
6HR MIN TEMP:  50; 6HR MAX TEMP:  58;

ST PAUL        PTCLDY    50  37  61 NW6       30.13R
CRYSTAL        CLEAR     50  36  58 N8        30.12R
BLAINE         CLEAR     46  37  71 N5        30.13R
LAKEVILLE      PTCLDY    50  37  62 N6        30.11R
EDEN PRAIRIE   CLEAR     51  35  54 N6        30.11R
6HR MIN TEMP:  49; 6HR MAX TEMP:  57;

SOUTH ST PAUL  PTCLDY    52  36  53 N3        30.12R
LAKE ELMO      FAIR      48  37  66 N5        30.12R
$$
MNZ001>005-007-008-013>017-022>024-027-028-041300-
   Northwest Minnesota

CITY           SKY/WX    TMP DP  RH WIND       PRES   REMARKS
BEMIDJI        CLEAR     33  30  87 CALM      30.16R
HALLOCK        CLEAR     32  28  86 CALM      30.17R
ROSEAU         CLEAR     34  28  80 CALM      30.17R
WARROAD        PTCLDY    34  28  80 CALM      30.18R
THIEF RVR FALL CLEAR     39  32  75 CALM      30.18R
CROOKSTON      FAIR      43  34  70 E5        30.18R
DETROIT LAKES  PTCLDY    43  41  93 CALM      30.17R
MOORHEAD       MOCLDY    37  27  65 CALM      30.17R
PARK RAPIDS    CLEAR     39  34  82 NW3       30.16R
MAHNOMEN       FAIR      37  32  82 CALM      30.17R
$$
MNZ006-009>011-018-025>026-041300-
   North Central Minnesota

CITY           SKY/WX    TMP DP  RH WIND       PRES   REMARKS
BAUDETTE       CLEAR     37  36  96 W6        30.16R
FLAG ISLAND    CLEAR     41  37  87 NW6       30.15R
INTL FALLS     SUNNY     38  35  89 NW6       30.13R
6HR MIN TEMP:  30; 6HR MAX TEMP:  38;

WASKISH        CLEAR     43  37  81 CALM      30.16R
BIG FORK       CLEAR     37  34  87 CALM      30.15R
LONGVILLE      CLEAR     37  37 100 CALM      30.15R
GRAND RAPIDS   CLEAR     41  34  75 CALM      30.14R
CRANE LAKE     SUNNY     28  27  93 CALM      30.13R
ORR            SUNNY     41  36  81 NW5       30.10R
COOK           SUNNY     34  32  93 CALM      30.12R
WALKER         FAIR      35  32  89 W3        30.16R
$$
MNZ012-019>021-037-041300-
   Northeast Minnesota

CITY           SKY/WX    TMP DP  RH WIND       PRES   REMARKS
DULUTH         SUNNY     45  35  68 NW8       30.09R
6HR MIN TEMP:  43; 6HR MAX TEMP:  52;

ELY            SUNNY     36  34  93 W5        30.10R
HIBBING        SUNNY     36  32  85 NW3       30.12R
EVELETH        SUNNY     37  34  87 NW5       30.12R
DULUTH HARBOR  FAIR      48  43  81 CALM      30.11R
TWO HARBORS    SUNNY     46  39  76 CALM      30.07R
SILVER BAY     SUNNY     50  37  62 CALM      30.06R
GRAND MARAIS     N/A     48  38  68 S5        30.03R
G MARAIS ARPRT SUNNY     43  34  70 NW12G21   30.02S
$$
MNZ029>031-032-039>041-046>048-054>057-064-041300-
   West Central Minnesota

CITY           SKY/WX    TMP DP  RH WIND       PRES   REMARKS
FERGUS FALLS   PTCLDY    45  34  65 CALM      30.17R
WHEATON        PTCLDY    39  28  65 W3        30.19R
MORRIS         CLEAR     37  28  70 CALM      30.16R
ALEXANDRIA     CLEAR     47  32  56 NE3       30.17R
ELBOW LAKE     FAIR      48  35  61 NE3       30.16R
WADENA         CLEAR     36  32  87 CALM      30.16R
GLENWOOD       CLEAR     43  32  65 VRB6      30.16R
APPLETON       CLEAR     39  30  70 NW3       30.16R
BENSON         CLEAR     36  30  80 CALM      30.16R
ORTONVILLE     CLEAR     43  34  70 NW3       30.16R
MADISON        CLEAR     41  28  60 NW7       30.16R
WILLMAR        FAIR      46  36  66 NE8       30.16R
$$
MNZ033>034-036-042>043-049>051-058-059-041300-
   Central Minnesota

CITY           SKY/WX    TMP DP  RH WIND       PRES   REMARKS
ST CLOUD       CLEAR     41  33  73 CALM      30.15R
6HR MIN TEMP:  37; 6HR MAX TEMP:  50;

SAUK CENTRE    FAIR      38  32  80 CALM      30.17R
PAYNESVILLE    CLEAR     37  32  82 CALM      30.17R
AITKIN         CLEAR     34  28  80 CALM      30.14R
PINE RIVER     CLEAR     36  34  93 CALM      30.19R
BRAINERD       CLEAR     39  34  82 CALM      30.16R
STAPLES        CLEAR     36  34  93 CALM      30.16R
LONG PRAIRIE   FAIR      41  32  70 NW3       30.17R
LITTLE FALLS   CLEAR     36  32  87 CALM      30.16R
LITCHFIELD     CLEAR     46  36  66 N5        30.16R
BUFFALO        CLEAR     48  35  61 N5        30.16R
MAPLE LAKE     CLEAR     47  38  72 NW5       30.16R
$$
MNZ037-044-045-052-053-041300-
   East Central Minnesota

CITY           SKY/WX    TMP DP  RH WIND       PRES   REMARKS
PRINCETON      CLEAR     39  34  81 CALM      30.15R
MORA           CLEAR     45  34  65 CALM      30.16R
CAMBRIDGE      CLEAR     46  34  61 CALM      30.13R
RUSH CITY      CLEAR     45  35  66 CALM      30.14R
MOOSE LAKE     MOSUNNY   43  34  70 CALM      30.11R
HINCKLEY       FAIR      46  36  66 N3        30.13R
CLOQUET        SUNNY     41  34  75 NW7       30.11R
MCGREGOR       CLEAR     41  34  75 NW3       30.14R
$$
MNZ071>073-080-081-089-090-097-098-041300-
   Southwest Minnesota

CITY           SKY/WX    TMP DP  RH WIND       PRES   REMARKS
MONTEVIDEO     CLEAR     43  30  61 N5        30.16R
GRANITE FALLS  CLEAR     40  30  66 N7        30.16R
CANBY          CLEAR     41  30  63 NW6       30.17R
MARSHALL       CLEAR     45  25  45 NW9       30.13R
REDWOOD FALLS  CLEAR     48  31  51 CALM      30.12R
OLIVIA         CLEAR     41  28  60 N5        30.13R
PIPESTONE      CLEAR     46  27  46 NE9       30.12R
WINDOM         PTCLDY    46  30  53 N8        30.11R
WORTHINGTON    PTCLDY    46  27  46 N12       30.11R
JACKSON        PTCLDY    50  30  46 N10       30.11R
TRACY          CLEAR     46  29  51 NW7       30.14R
SLAYTON        CLEAR     45  28  51 CALM      30.13R
$$
MNZ065>067-074>077-082>085-091>093-041300-
   South Central Minnesota

CITY           SKY/WX    TMP DP  RH WIND       PRES   REMARKS
MANKATO          N/A    N/A N/A N/A MISG        N/A
NEW ULM        CLEAR     50  32  50 NE6       30.11R
ST JAMES       CLEAR     50  32  50 N8        30.11R
FAIRMONT       PTCLDY    50  30  46 N10       30.08R
GLENCOE        CLEAR     48  37  65 N5        30.12R
FARIBAULT      PTCLDY    50  39  66 N5        30.11R
OWATONNA       MOCLDY    52  39  62 N8        30.09R
WASECA         PTCLDY    52  41  66 N13       30.09S
ALBERT LEA     FAIR      54  43  66 NE10      30.07R
$$
MNZ078>079-086>088-094>096-041300-
   Southeast Minnesota

CITY           SKY/WX    TMP DP  RH WIND       PRES   REMARKS
ROCHESTER      MOCLDY    52  42  69 N12       30.09R
6HR MIN TEMP:  52; 6HR MAX TEMP:  56;

RED WING       MOCLDY    54  36  50 N6        30.09R
STANTON        MOCLDY    48  40  76 CALM      30.10R
DODGE CENTER   MOCLDY    52  43  71 N12       30.08R
WINONA         PTSUNNY   55  46  71 CALM      30.07R
AUSTIN         MOCLDY    52  45  76 NE8       30.06R
PRESTON        MOCLDY    51  48  89 N8        30.06R
$$
ABBREVIATIONS USED IN REMARKS
   TC - TEMPERATURES IN CELSIUS
  WCI - WIND CHILL INDEX
   HX - HEAT INDEX
  VSB - VISIBILITY
$$



USA.gov is the U.S. government's official web portal to all federal, state and local government web resources and services.